Cleveland, OH

1:50 AM EST on February 24, 2018 (GMT -0500)
Cleveland-Hopkins International

Weather History for KCLE - February, 2014

Change the Weather History Date:

Friday, February 28, 2014

  Actual Average Record
Temperature  
Mean Temperature 13 °F 33 °F  
Max Temperature 24 °F 41 °F 67 °F (1939)
Min Temperature 1 °F 26 °F -9 °F (2015)
Degree Days  
Heating Degree Days 52 32  
Month to date heating degree days 1183 964  
Since 1 July heating degree days 4681 4217  
Cooling Degree Days 0 0  
Month to date cooling degree days 0 0  
Year to date cooling degree days 0 0  
Moisture  
Dew Point -2 °F    
Average Humidity 58    
Maximum Humidity 79    
Minimum Humidity 36    
Precipitation  
Precipitation T in 0.09 in 2.00 in (2011)
Month to date precipitation 3.03 2.34  
Year to date precipitation 5.03 5.06  
Snow  
Snow T in 0.50 in - ()
Month to date snowfall 23.8 14.9  
Since 1 July snowfall 69.7 52.2  
Snow Depth 1.00 in    
Sea Level Pressure  
Sea Level Pressure 30.30 in    
Wind  
Wind Speed 7 mph (SE)    
Max Wind Speed 14 mph    
Max Gust Speed 18 mph    
Visibility 9 miles    
Events Snow    
T = Trace of Precipitation, MM = Missing Value Source: NWS Daily Summary

Daily Weather History Graph

Daily Weather History Graph

Search for Another Location

Airport or City:

Trip Planner

Search our weather history database for the weather conditions in past years. The results will help you decide how hot, cold, wet, or windy it might be!

Date:

Astronomy

Feb. 28, 2014 Rise Set
Actual Time 7:03 AM EST 6:16 PM EST
Civil Twilight 6:35 AM EST 6:44 PM EST
Nautical Twilight 6:03 AM EST 7:16 PM EST
Astronomical Twilight 5:31 AM EST 7:48 PM EST
Moon 6:17 AM EST (2/28) 5:52 PM EST (2/28)
Length of Visible Light 12h 09m
Length of Day
11h 13m
Waning Crescent, 1% of the Moon is Illuminated
Feb 28
Waning Crescent
Mar 1
New
Mar 8
First Quarter
Mar 16
Full
Mar 23
Last Quarter

Hourly Weather History & Observations

Time (EST) Temp. Windchill Dew Point Humidity Pressure Visibility Wind Dir Wind Speed Gust Speed Precip Events Conditions
12:51 AM 3.0 °F -6.4 °F -5.1 °F 69% 30.27 in 10.0 mi SSE 4.6 mph - N/A   Scattered Clouds
1:51 AM 3.0 °F -8.0 °F -5.1 °F 69% 30.29 in 10.0 mi SSE 5.8 mph - N/A   Mostly Cloudy
2:37 AM 5.0 °F -4.1 °F -2.9 °F 70% 30.24 in 4.0 mi SE 4.6 mph - N/A Snow Light Snow
2:51 AM 6.1 °F -2.8 °F -0.9 °F 73% 30.30 in 3.0 mi SE 4.6 mph - 0.00 in Snow Light Snow
3:51 AM 6.1 °F -2.8 °F -2.0 °F 69% 30.30 in 7.0 mi SE 4.6 mph - 0.00 in Snow Light Snow
4:23 AM 5.0 °F -5.6 °F -2.9 °F 70% 30.26 in 10.0 mi East 5.8 mph - N/A   Scattered Clouds
4:51 AM 5.0 °F -2.1 °F -4.0 °F 66% 30.32 in 10.0 mi ESE 3.5 mph - 0.00 in   Scattered Clouds
5:51 AM 1.0 °F -10.3 °F -4.0 °F 79% 30.35 in 10.0 mi SSE 5.8 mph - N/A   Partly Cloudy
6:51 AM 1.9 °F -7.6 °F -6.0 °F 69% 30.38 in 10.0 mi SE 4.6 mph - N/A   Clear
7:51 AM 3.0 °F -8.0 °F -7.1 °F 63% 30.40 in 10.0 mi SE 5.8 mph - N/A   Clear
8:51 AM 7.0 °F -7.5 °F -7.1 °F 53% 30.40 in 10.0 mi SE 10.4 mph - N/A   Partly Cloudy
9:51 AM 10.0 °F -4.5 °F -6.0 °F 48% 30.39 in 10.0 mi SSE 11.5 mph - N/A   Scattered Clouds
10:51 AM 12.0 °F -1.3 °F -2.9 °F 51% 30.39 in 10.0 mi SE 10.4 mph - N/A   Partly Cloudy
11:51 AM 16.0 °F 5.3 °F -2.0 °F 45% 30.40 in 10.0 mi South 8.1 mph - N/A   Clear
12:51 PM 18.0 °F 7.7 °F -0.9 °F 44% 30.36 in 10.0 mi SSE 8.1 mph - N/A   Clear
1:51 PM 19.9 °F 10.1 °F -0.9 °F 40% 30.33 in 10.0 mi South 8.1 mph - N/A   Partly Cloudy
2:51 PM 21.9 °F 12.5 °F 1.0 °F 40% 30.30 in 10.0 mi SSE 8.1 mph - N/A   Partly Cloudy
3:51 PM 23.0 °F 17.0 °F -0.9 °F 35% 30.29 in 10.0 mi Variable 4.6 mph - N/A   Clear
4:51 PM 24.1 °F 16.0 °F 1.9 °F 38% 30.27 in 10.0 mi Variable 6.9 mph - N/A   Partly Cloudy
5:51 PM 24.1 °F 14.4 °F 1.9 °F 38% 30.26 in 10.0 mi SSE 9.2 mph - N/A   Partly Cloudy
6:51 PM 23.0 °F 17.0 °F 1.9 °F 40% 30.23 in 10.0 mi SE 4.6 mph - N/A   Partly Cloudy
7:51 PM 23.0 °F 17.0 °F 1.9 °F 40% 30.23 in 10.0 mi SE 4.6 mph - N/A   Scattered Clouds
8:51 PM 21.9 °F 15.7 °F 3.9 °F 46% 30.21 in 10.0 mi ESE 4.6 mph - N/A   Scattered Clouds
9:51 PM 23.0 °F 18.4 °F 1.9 °F 40% 30.21 in 10.0 mi East 3.5 mph - N/A   Scattered Clouds
10:51 PM 21.0 °F 14.6 °F 3.0 °F 46% 30.20 in 10.0 mi SE 4.6 mph - N/A   Scattered Clouds
11:51 PM 21.9 °F 11.7 °F 3.0 °F 44% 30.18 in 10.0 mi SSE 9.2 mph - N/A   Scattered Clouds